Location: Berg
(48.4333°N, 13.9167°E)
Time: 15:29:50
(UTC+00:00)

Meteor 2-19 Rocket - Pass Details

Date: 18 September 2020
Orbit: 935 x 959 km, 82.5° (Epoch: 23 October)

Event Time Altitude Azimuth Distance (km) Brightness Sun altitude
Rises 19:57:05 0° 351° (N) 3,640 8.1 -26.6°
Reaches altitude 10° 19:59:37 10° 354° (N) 2,687 7.3 -26.9°
Enters shadow 20:05:40 68° 72° (ENE) 1,016 4.4 -27.7°
